Location: Newark
(47.5833°N, 8.1500°E)
Time: 14:44:28
(UTC+00:00)

Tiros 1 - Pass Details

Date: 05 November 2020
Orbit: 630 x 664 km, 48.4° (Epoch: 29 November)

Event Time Altitude Azimuth Distance (km) Brightness Sun altitude
Exits shadow 04:16:22 55° 266° (W) 763 7.1 -20.8°
Maximum altitude 04:17:19 76° 199° (SSW) 653 7.0 -20.6°
Drops below altitude 10° 04:21:55 10° 113° (ESE) 2,004 10.7 -19.8°
Sets 04:24:14 0° 112° (ESE) 2,911 11.8 -19.4°
